Time,TemperatureF,DewpointF,PressureIn,WindDirection,WindDirectionDegrees,WindSpeedMPH,WindSpeedGustMPH,Humidity,HourlyPrecipIn,Conditions,Clouds,dailyrainin,SoftwareType,DateUTC
2013-03-08 00:02:00,51.3,30.0,30.23,ESE,120,10.0,17.0,44,0.00,,,0.00,meteohub,2013-03-08 06:02:00,
2013-03-08 00:07:00,51.1,30.6,30.23,East,97,8.0,18.0,45,0.00,,,0.00,meteohub,2013-03-08 06:07:00,
2013-03-08 00:12:00,51.1,30.6,30.23,ESE,108,12.0,18.0,45,0.00,,,0.00,meteohub,2013-03-08 06:12:00,
2013-03-08 00:17:00,50.7,30.2,30.23,SE,136,12.0,18.0,45,0.00,,,0.00,meteohub,2013-03-08 06:17:00,
2013-03-08 00:22:00,50.7,30.2,30.22,ESE,114,14.0,16.0,45,0.00,,,0.00,meteohub,2013-03-08 06:22:00,
2013-03-08 00:27:00,50.7,30.2,30.22,ESE,108,11.0,17.0,45,0.00,,,0.00,meteohub,2013-03-08 06:27:00,
2013-03-08 00:32:00,50.5,30.0,30.22,SE,124,10.0,17.0,45,0.00,,,0.00,meteohub,2013-03-08 06:32:00,
2013-03-08 00:37:00,50.5,30.0,30.22,ESE,109,13.0,17.0,45,0.00,,,0.00,meteohub,2013-03-08 06:37:00,
2013-03-08 00:42:00,50.5,30.0,30.22,East,95,12.0,17.0,45,0.00,,,0.00,meteohub,2013-03-08 06:42:00,
2013-03-08 00:47:00,50.5,30.0,30.22,ESE,120,7.0,17.0,45,0.00,,,0.00,meteohub,2013-03-08 06:47:00,
2013-03-08 00:52:00,50.4,30.4,30.22,ESE,117,11.0,18.0,46,0.00,,,0.00,meteohub,2013-03-08 06:52:00,
2013-03-08 00:57:00,50.2,30.2,30.23,SE,125,11.0,18.0,46,0.00,,,0.00,meteohub,2013-03-08 06:57:00,
2013-03-08 01:02:00,50.0,30.0,30.23,SE,136,7.0,16.0,46,0.00,,,0.00,meteohub,2013-03-08 07:02:00,
2013-03-08 01:07:00,49.8,30.4,30.23,ESE,122,8.0,16.0,47,0.00,,,0.00,meteohub,2013-03-08 07:07:00,
2013-03-08 01:12:00,49.6,30.2,30.23,ESE,112,10.0,18.0,47,0.00,,,0.00,meteohub,2013-03-08 07:12:00,
2013-03-08 01:17:00,49.6,30.2,30.23,ESE,109,10.0,18.0,47,0.00,,,0.00,meteohub,2013-03-08 07:17:00,
2013-03-08 01:22:00,49.5,30.6,30.23,East,96,10.0,18.0,48,0.00,,,0.00,meteohub,2013-03-08 07:22:00,
2013-03-08 01:27:00,49.3,30.4,30.23,ESE,114,10.0,17.0,48,0.00,,,0.00,meteohub,2013-03-08 07:27:00,
2013-03-08 01:32:00,49.3,30.4,30.23,ESE,119,12.0,15.0,48,0.00,,,0.00,meteohub,2013-03-08 07:32:00,
2013-03-08 01:37:00,49.3,30.4,30.23,ESE,109,11.0,17.0,48,0.00,,,0.00,meteohub,2013-03-08 07:37:00,
2013-03-08 01:42:00,49.1,30.2,30.23,ESE,105,11.0,17.0,48,0.00,,,0.00,meteohub,2013-03-08 07:42:00,
2013-03-08 01:47:00,48.7,29.8,30.23,ESE,103,8.0,17.0,48,0.00,,,0.00,meteohub,2013-03-08 07:47:00,
2013-03-08 01:52:00,48.6,30.2,30.24,East,94,8.0,15.0,49,0.00,,,0.00,meteohub,2013-03-08 07:52:00,
2013-03-08 01:57:00,48.4,30.0,30.24,ESE,109,7.0,15.0,49,0.00,,,0.00,meteohub,2013-03-08 07:57:00,
2013-03-08 02:02:00,48.0,30.2,30.24,ESE,114,9.0,15.0,50,0.00,,,0.00,meteohub,2013-03-08 08:02:00,
2013-03-08 02:07:00,48.0,30.2,30.24,ESE,103,6.0,15.0,50,0.00,,,0.00,meteohub,2013-03-08 08:07:00,
2013-03-08 02:12:00,47.8,30.0,30.24,SE,127,10.0,15.0,50,0.00,,,0.00,meteohub,2013-03-08 08:12:00,
2013-03-08 02:17:00,47.7,30.4,30.24,ESE,115,8.0,15.0,51,0.00,,,0.00,meteohub,2013-03-08 08:17:00,
2013-03-08 02:22:00,47.7,30.4,30.23,ESE,109,6.0,15.0,51,0.00,,,0.00,meteohub,2013-03-08 08:22:00,
2013-03-08 02:27:00,47.5,30.2,30.23,ESE,108,10.0,14.0,51,0.00,,,0.00,meteohub,2013-03-08 08:27:00,
2013-03-08 02:32:00,47.3,30.6,30.23,East,89,9.0,14.0,52,0.00,,,0.00,meteohub,2013-03-08 08:32:00,
2013-03-08 02:37:00,47.1,30.4,30.23,SE,124,7.0,14.0,52,0.00,,,0.00,meteohub,2013-03-08 08:37:00,
2013-03-08 02:42:00,46.9,30.7,30.22,ESE,115,4.0,11.0,53,0.00,,,0.00,meteohub,2013-03-08 08:42:00,
2013-03-08 02:47:00,46.8,30.6,30.22,ENE,78,4.0,11.0,53,0.00,,,0.00,meteohub,2013-03-08 08:47:00,
2013-03-08 02:52:00,46.8,30.6,30.22,ESE,119,8.0,10.0,53,0.00,,,0.00,meteohub,2013-03-08 08:52:00,
2013-03-08 02:57:00,46.8,30.6,30.22,SE,135,4.0,11.0,53,0.00,,,0.00,meteohub,2013-03-08 08:57:00,
2013-03-08 03:02:00,46.8,30.6,30.22,SE,130,5.0,12.0,53,0.00,,,0.00,meteohub,2013-03-08 09:02:00,
2013-03-08 03:07:00,46.9,30.7,30.22,SSE,158,7.0,13.0,53,0.00,,,0.00,meteohub,2013-03-08 09:07:00,
2013-03-08 03:12:00,46.9,30.7,30.22,ESE,105,11.0,13.0,53,0.00,,,0.00,meteohub,2013-03-08 09:12:00,
2013-03-08 03:17:00,46.9,30.7,30.22,ESE,112,13.0,16.0,53,0.00,,,0.00,meteohub,2013-03-08 09:17:00,
2013-03-08 03:22:00,47.1,30.9,30.22,ESE,120,11.0,16.0,53,0.00,,,0.00,meteohub,2013-03-08 09:22:00,
2013-03-08 03:27:00,47.1,30.9,30.22,ESE,105,7.0,17.0,53,0.00,,,0.00,meteohub,2013-03-08 09:27:00,
2013-03-08 03:32:00,47.1,30.9,30.22,ESE,103,9.0,17.0,53,0.00,,,0.00,meteohub,2013-03-08 09:32:00,
2013-03-08 03:37:00,47.3,30.6,30.22,ESE,109,12.0,15.0,52,0.00,,,0.00,meteohub,2013-03-08 09:37:00,
2013-03-08 03:42:00,47.3,30.6,30.22,SE,136,6.0,14.0,52,0.00,,,0.00,meteohub,2013-03-08 09:42:00,
2013-03-08 03:47:00,47.7,30.9,30.22,ENE,75,8.0,14.0,52,0.00,,,0.00,meteohub,2013-03-08 09:47:00,
2013-03-08 03:52:00,47.7,30.9,30.22,SE,127,6.0,16.0,52,0.00,,,0.00,meteohub,2013-03-08 09:52:00,
2013-03-08 03:57:00,47.8,30.6,30.22,ESE,121,8.0,16.0,51,0.00,,,0.00,meteohub,2013-03-08 09:57:00,
2013-03-08 04:02:00,48.4,31.1,30.22,SE,124,12.0,16.0,51,0.00,,,0.00,meteohub,2013-03-08 10:02:00,
2013-03-08 04:07:00,48.4,31.1,30.22,ESE,112,9.0,16.0,51,0.00,,,0.00,meteohub,2013-03-08 10:07:00,
2013-03-08 04:12:00,48.4,31.1,30.22,ESE,121,10.0,16.0,51,0.00,,,0.00,meteohub,2013-03-08 10:12:00,
2013-03-08 04:17:00,48.2,30.9,30.22,ESE,107,14.0,16.0,51,0.00,,,0.00,meteohub,2013-03-08 10:17:00,
2013-03-08 04:22:00,48.0,30.7,30.22,ESE,106,11.0,17.0,51,0.00,,,0.00,meteohub,2013-03-08 10:22:00,
2013-03-08 04:27:00,48.0,30.7,30.22,ESE,122,12.0,17.0,51,0.00,,,0.00,meteohub,2013-03-08 10:27:00,
2013-03-08 04:32:00,48.0,31.3,30.22,ESE,119,12.0,18.0,52,0.00,,,0.00,meteohub,2013-03-08 10:32:00,
2013-03-08 04:37:00,47.8,31.1,30.22,East,83,7.0,18.0,52,0.00,,,0.00,meteohub,2013-03-08 10:37:00,
2013-03-08 04:42:00,47.8,31.1,30.22,ESE,116,14.0,18.0,52,0.00,,,0.00,meteohub,2013-03-08 10:42:00,
2013-03-08 04:47:00,48.0,31.3,30.21,SE,127,12.0,15.0,52,0.00,,,0.00,meteohub,2013-03-08 10:47:00,
2013-03-08 04:52:00,48.0,31.3,30.21,ESE,122,9.0,17.0,52,0.00,,,0.00,meteohub,2013-03-08 10:52:00,
2013-03-08 04:57:00,48.4,31.6,30.21,ESE,122,13.0,18.0,52,0.00,,,0.00,meteohub,2013-03-08 10:57:00,
2013-03-08 05:03:00,48.4,31.6,30.22,East,96,10.0,18.0,52,0.00,,,0.00,meteohub,2013-03-08 11:03:00,
2013-03-08 05:08:00,48.0,31.3,30.21,ESE,107,6.0,18.0,52,0.00,,,0.00,meteohub,2013-03-08 11:08:00,
2013-03-08 05:13:00,48.0,31.6,30.21,East,95,13.0,17.0,53,0.00,,,0.00,meteohub,2013-03-08 11:13:00,
2013-03-08 05:18:00,48.0,31.6,30.22,East,92,9.0,18.0,53,0.00,,,0.00,meteohub,2013-03-08 11:18:00,
2013-03-08 05:23:00,47.8,31.5,30.22,East,79,7.0,19.0,53,0.00,,,0.00,meteohub,2013-03-08 11:23:00,
2013-03-08 05:28:00,47.7,31.8,30.22,East,95,9.0,19.0,54,0.00,,,0.00,meteohub,2013-03-08 11:28:00,
2013-03-08 05:33:00,47.5,31.6,30.22,East,98,9.0,18.0,54,0.00,,,0.00,meteohub,2013-03-08 11:33:00,
2013-03-08 05:38:00,47.5,32.2,30.22,SE,124,6.0,13.0,55,0.00,,,0.00,meteohub,2013-03-08 11:38:00,
2013-03-08 05:43:00,47.7,31.8,30.22,East,87,10.0,13.0,54,0.00,,,0.00,meteohub,2013-03-08 11:43:00,
2013-03-08 05:48:00,47.8,32.0,30.22,East,86,7.0,16.0,54,0.00,,,0.00,meteohub,2013-03-08 11:48:00,
2013-03-08 05:53:00,47.8,32.0,30.22,SE,126,6.0,17.0,54,0.00,,,0.00,meteohub,2013-03-08 11:53:00,
2013-03-08 05:58:00,48.0,31.6,30.22,East,96,9.0,17.0,53,0.00,,,0.00,meteohub,2013-03-08 11:58:00,
2013-03-08 06:03:00,48.0,31.6,30.22,SE,130,8.0,17.0,53,0.00,,,0.00,meteohub,2013-03-08 12:03:00,
2013-03-08 06:08:00,47.7,31.8,30.22,East,89,8.0,17.0,54,0.00,,,0.00,meteohub,2013-03-08 12:08:00,
2013-03-08 06:13:00,47.5,32.2,30.22,East,84,10.0,17.0,55,0.00,,,0.00,meteohub,2013-03-08 12:13:00,
2013-03-08 06:18:00,47.1,31.8,30.22,East,94,11.0,14.0,55,0.00,,,0.00,meteohub,2013-03-08 12:18:00,
2013-03-08 06:23:00,46.8,31.8,30.22,ESE,106,11.0,15.0,56,0.00,,,0.00,meteohub,2013-03-08 12:23:00,
2013-03-08 06:28:00,46.6,32.2,30.23,ESE,103,12.0,15.0,57,0.00,,,0.00,meteohub,2013-03-08 12:28:00,
2013-03-08 06:33:00,46.2,31.8,30.23,East,101,12.0,14.0,57,0.00,,,0.00,meteohub,2013-03-08 12:33:00,
2013-03-08 06:38:00,46.0,32.0,30.23,ESE,113,11.0,16.0,58,0.00,,,0.00,meteohub,2013-03-08 12:38:00,
2013-03-08 06:43:00,45.9,32.4,30.23,East,86,11.0,16.0,59,0.00,,,0.00,meteohub,2013-03-08 12:43:00,
2013-03-08 06:48:00,45.9,32.4,30.23,East,90,6.0,16.0,59,0.00,,,0.00,meteohub,2013-03-08 12:48:00,
2013-03-08 06:53:00,45.9,32.4,30.23,East,98,11.0,14.0,59,0.00,,,0.00,meteohub,2013-03-08 12:53:00,
2013-03-08 06:58:00,45.9,32.4,30.22,East,92,15.0,15.0,59,0.00,,,0.00,meteohub,2013-03-08 12:58:00,
2013-03-08 07:03:00,46.0,32.5,30.22,East,96,14.0,17.0,59,0.00,,,0.00,meteohub,2013-03-08 13:03:00,
2013-03-08 07:08:00,46.0,32.0,30.22,East,101,5.0,17.0,58,0.00,,,0.00,meteohub,2013-03-08 13:08:00,
2013-03-08 07:13:00,46.2,32.2,30.22,East,86,9.0,19.0,58,0.00,,,0.00,meteohub,2013-03-08 13:13:00,
2013-03-08 07:18:00,46.2,32.2,30.22,ESE,118,11.0,19.0,58,0.00,,,0.00,meteohub,2013-03-08 13:18:00,
2013-03-08 07:23:00,46.4,32.4,30.23,East,98,13.0,19.0,58,0.00,,,0.00,meteohub,2013-03-08 13:23:00,
2013-03-08 07:28:00,46.6,32.5,30.23,ESE,117,12.0,17.0,58,0.00,,,0.00,meteohub,2013-03-08 13:28:00,
2013-03-08 07:33:00,46.8,32.4,30.23,ESE,109,6.0,18.0,57,0.00,,,0.00,meteohub,2013-03-08 13:33:00,
2013-03-08 07:38:00,46.9,32.5,30.23,East,98,13.0,18.0,57,0.00,,,0.00,meteohub,2013-03-08 13:38:00,
2013-03-08 07:43:00,46.9,32.5,30.23,SE,127,11.0,20.0,57,0.00,,,0.00,meteohub,2013-03-08 13:43:00,
2013-03-08 07:48:00,47.1,32.2,30.24,ESE,121,11.0,20.0,56,0.00,,,0.00,meteohub,2013-03-08 13:48:00,
2013-03-08 07:53:00,47.3,32.4,30.24,ESE,121,19.0,21.0,56,0.00,,,0.00,meteohub,2013-03-08 13:53:00,
2013-03-08 07:58:00,47.5,32.5,30.24,ESE,117,14.0,22.0,56,0.00,,,0.00,meteohub,2013-03-08 13:58:00,
2013-03-08 08:03:00,47.5,32.5,30.24,ESE,112,17.0,22.0,56,0.00,,,0.00,meteohub,2013-03-08 14:03:00,
2013-03-08 08:08:00,47.5,32.5,30.25,ESE,112,7.0,22.0,56,0.00,,,0.00,meteohub,2013-03-08 14:08:00,
2013-03-08 08:13:00,47.5,32.5,30.25,SE,127,11.0,21.0,56,0.00,,,0.00,meteohub,2013-03-08 14:13:00,
2013-03-08 08:18:00,47.7,32.7,30.25,ESE,113,15.0,20.0,56,0.00,,,0.00,meteohub,2013-03-08 14:18:00,
2013-03-08 08:23:00,47.8,32.9,30.25,ESE,119,8.0,19.0,56,0.00,,,0.00,meteohub,2013-03-08 14:23:00,
2013-03-08 08:28:00,48.0,33.1,30.24,ESE,112,8.0,19.0,56,0.00,,,0.00,meteohub,2013-03-08 14:28:00,
2013-03-08 08:33:00,48.2,33.3,30.24,SE,125,16.0,18.0,56,0.00,,,0.00,meteohub,2013-03-08 14:33:00,
2013-03-08 08:38:00,48.6,33.1,30.24,SE,133,14.0,17.0,55,0.00,,,0.00,meteohub,2013-03-08 14:38:00,
2013-03-08 08:43:00,48.7,33.3,30.23,East,100,12.0,20.0,55,0.00,,,0.00,meteohub,2013-03-08 14:43:00,
2013-03-08 08:48:00,48.9,33.4,30.23,ESE,116,17.0,20.0,55,0.00,,,0.00,meteohub,2013-03-08 14:48:00,
2013-03-08 08:53:00,49.1,34.2,30.23,SE,140,11.0,20.0,56,0.00,,,0.00,meteohub,2013-03-08 14:53:00,
2013-03-08 08:58:00,49.3,33.8,30.23,ESE,113,13.0,20.0,55,0.00,,,0.00,meteohub,2013-03-08 14:58:00,
2013-03-08 09:03:00,49.5,34.3,30.23,SSW,195,9.0,21.0,56,0.00,,,0.00,meteohub,2013-03-08 15:03:00,
2013-03-08 09:08:00,49.6,34.5,30.23,SE,129,12.0,21.0,56,0.00,,,0.00,meteohub,2013-03-08 15:08:00,
2013-03-08 09:13:00,49.8,34.7,30.23,SE,140,12.0,21.0,56,0.00,,,0.00,meteohub,2013-03-08 15:13:00,
2013-03-08 09:18:00,49.8,34.7,30.23,SSE,162,6.0,21.0,56,0.00,,,0.00,meteohub,2013-03-08 15:18:00,
2013-03-08 09:23:00,50.0,34.9,30.23,SE,129,16.0,19.0,56,0.00,,,0.00,meteohub,2013-03-08 15:23:00,
2013-03-08 09:28:00,50.2,35.6,30.23,SE,134,10.0,23.0,57,0.00,,,0.00,meteohub,2013-03-08 15:28:00,
2013-03-08 09:33:00,50.4,35.8,30.23,SE,124,9.0,23.0,57,0.00,,,0.00,meteohub,2013-03-08 15:33:00,
2013-03-08 09:38:00,50.5,36.0,30.23,SSE,147,11.0,23.0,57,0.00,,,0.00,meteohub,2013-03-08 15:38:00,
2013-03-08 09:43:00,50.5,36.0,30.22,ESE,122,13.0,21.0,57,0.00,,,0.00,meteohub,2013-03-08 15:43:00,
2013-03-08 09:48:00,50.5,36.0,30.22,ESE,115,12.0,23.0,57,0.00,,,0.00,meteohub,2013-03-08 15:48:00,
2013-03-08 09:53:00,50.7,36.0,30.22,SE,136,11.0,23.0,57,0.00,,,0.00,meteohub,2013-03-08 15:53:00,
2013-03-08 09:58:00,50.7,36.5,30.23,SE,136,7.0,23.0,58,0.00,,,0.00,meteohub,2013-03-08 15:58:00,
2013-03-08 10:03:00,51.1,36.9,30.22,SE,138,16.0,21.0,58,0.00,,,0.00,meteohub,2013-03-08 16:03:00,
2013-03-08 10:08:00,51.3,37.0,30.22,SE,129,14.0,21.0,58,0.00,,,0.00,meteohub,2013-03-08 16:08:00,
2013-03-08 10:14:00,51.6,37.4,30.22,ESE,115,15.0,21.0,58,0.00,,,0.00,meteohub,2013-03-08 16:14:00,
2013-03-08 10:19:00,51.6,36.9,30.22,SE,141,12.0,20.0,57,0.00,,,0.00,meteohub,2013-03-08 16:19:00,
2013-03-08 10:24:00,52.0,37.2,30.23,SE,146,14.0,20.0,57,0.00,,,0.00,meteohub,2013-03-08 16:24:00,
2013-03-08 10:29:00,52.3,37.6,30.23,ESE,119,12.0,23.0,57,0.00,,,0.00,meteohub,2013-03-08 16:29:00,
2013-03-08 10:34:00,52.5,37.8,30.23,ESE,114,15.0,23.0,57,0.00,,,0.00,meteohub,2013-03-08 16:34:00,
2013-03-08 10:39:00,52.9,38.1,30.22,SSE,155,8.0,20.0,57,0.00,,,0.00,meteohub,2013-03-08 16:39:00,
2013-03-08 10:44:00,53.4,39.0,30.22,SE,124,15.0,20.0,58,0.00,,,0.00,meteohub,2013-03-08 16:44:00,
2013-03-08 10:49:00,53.8,38.8,30.22,ESE,121,18.0,22.0,57,0.00,,,0.00,meteohub,2013-03-08 16:49:00,
2013-03-08 10:54:00,54.1,39.7,30.21,SE,142,17.0,22.0,58,0.00,,,0.00,meteohub,2013-03-08 16:54:00,
2013-03-08 10:59:00,54.7,39.7,30.21,South,171,21.0,23.0,57,0.00,,,0.00,meteohub,2013-03-08 16:59:00,
2013-03-08 11:04:00,54.7,40.3,30.21,SSE,162,16.0,24.0,58,0.00,,,0.00,meteohub,2013-03-08 17:04:00,
2013-03-08 11:09:00,54.9,40.3,30.22,SE,146,16.0,24.0,58,0.00,,,0.00,meteohub,2013-03-08 17:09:00,
2013-03-08 11:14:00,55.2,40.6,30.22,SE,134,11.0,24.0,58,0.00,,,0.00,meteohub,2013-03-08 17:14:00,
2013-03-08 11:19:00,55.8,41.2,30.21,SSE,161,15.0,22.0,58,0.00,,,0.00,meteohub,2013-03-08 17:19:00,
2013-03-08 11:24:00,56.1,41.2,30.21,SE,136,13.0,22.0,57,0.00,,,0.00,meteohub,2013-03-08 17:24:00,
2013-03-08 11:29:00,56.1,41.5,30.21,SE,143,12.0,28.0,58,0.00,,,0.00,meteohub,2013-03-08 17:29:00,
2013-03-08 11:34:00,56.3,41.7,30.21,ESE,106,17.0,28.0,58,0.00,,,0.00,meteohub,2013-03-08 17:34:00,
2013-03-08 11:39:00,56.1,41.9,30.22,SSW,205,6.0,28.0,59,0.00,,,0.00,meteohub,2013-03-08 17:39:00,
2013-03-08 11:44:00,56.5,42.3,30.21,SE,134,16.0,26.0,59,0.00,,,0.00,meteohub,2013-03-08 17:44:00,
2013-03-08 11:49:00,56.1,41.9,30.21,SE,142,14.0,20.0,59,0.00,,,0.00,meteohub,2013-03-08 17:49:00,
2013-03-08 11:54:00,56.3,42.1,30.20,South,188,14.0,22.0,59,0.00,,,0.00,meteohub,2013-03-08 17:54:00,
2013-03-08 11:59:00,56.5,42.3,30.20,ESE,108,18.0,22.0,59,0.00,,,0.00,meteohub,2013-03-08 17:59:00,
2013-03-08 12:04:00,56.5,42.3,30.19,SSE,155,13.0,21.0,59,0.00,,,0.00,meteohub,2013-03-08 18:04:00,
2013-03-08 12:09:00,56.7,42.4,30.19,SSE,150,13.0,21.0,59,0.00,,,0.00,meteohub,2013-03-08 18:09:00,
2013-03-08 12:14:00,56.7,42.4,30.18,SW,221,9.0,23.0,59,0.00,,,0.00,meteohub,2013-03-08 18:14:00,
2013-03-08 12:19:00,56.8,42.6,30.18,SE,129,14.0,23.0,59,0.00,,,0.00,meteohub,2013-03-08 18:19:00,
2013-03-08 12:24:00,56.8,43.2,30.18,South,179,15.0,23.0,60,0.00,,,0.00,meteohub,2013-03-08 18:24:00,
2013-03-08 12:29:00,56.8,43.2,30.18,South,177,10.0,24.0,60,0.00,,,0.00,meteohub,2013-03-08 18:29:00,
2013-03-08 12:34:00,56.8,43.2,30.18,SE,124,16.0,24.0,60,0.00,,,0.00,meteohub,2013-03-08 18:34:00,
2013-03-08 12:39:00,56.8,43.2,30.17,SE,133,11.0,25.0,60,0.00,,,0.00,meteohub,2013-03-08 18:39:00,
2013-03-08 12:44:00,56.8,43.2,30.17,SSE,147,16.0,25.0,60,0.00,,,0.00,meteohub,2013-03-08 18:44:00,
2013-03-08 12:49:00,57.0,43.7,30.17,ESE,112,9.0,22.0,61,0.00,,,0.00,meteohub,2013-03-08 18:49:00,
2013-03-08 12:54:00,57.2,43.9,30.16,SE,133,10.0,23.0,61,0.00,,,0.00,meteohub,2013-03-08 18:54:00,
2013-03-08 12:59:00,57.2,43.9,30.16,SE,146,16.0,27.0,61,0.00,,,0.00,meteohub,2013-03-08 18:59:00,
2013-03-08 13:04:00,57.2,44.2,30.16,SE,140,12.0,27.0,62,0.00,,,0.00,meteohub,2013-03-08 19:04:00,
2013-03-08 13:09:00,57.4,44.4,30.15,SE,131,16.0,27.0,62,0.00,,,0.00,meteohub,2013-03-08 19:09:00,
2013-03-08 13:14:00,57.6,44.6,30.14,ESE,119,15.0,24.0,62,0.00,,,0.00,meteohub,2013-03-08 19:14:00,
2013-03-08 13:19:00,57.7,44.8,30.14,SSE,165,16.0,22.0,62,0.00,,,0.00,meteohub,2013-03-08 19:19:00,
2013-03-08 13:24:00,57.9,45.0,30.14,SE,127,18.0,23.0,62,0.00,,,0.00,meteohub,2013-03-08 19:24:00,
2013-03-08 13:29:00,57.9,45.0,30.14,SE,139,11.0,23.0,62,0.00,,,0.00,meteohub,2013-03-08 19:29:00,
2013-03-08 13:34:00,57.9,45.0,30.13,ESE,110,10.0,23.0,62,0.00,,,0.00,meteohub,2013-03-08 19:34:00,
2013-03-08 13:39:00,57.9,45.3,30.13,ESE,108,20.0,21.0,63,0.00,,,0.00,meteohub,2013-03-08 19:39:00,
2013-03-08 13:44:00,58.3,45.3,30.13,SE,141,6.0,24.0,62,0.00,,,0.00,meteohub,2013-03-08 19:44:00,
2013-03-08 13:49:00,58.5,45.5,30.12,ESE,110,12.0,24.0,62,0.00,,,0.00,meteohub,2013-03-08 19:49:00,
2013-03-08 13:54:00,58.6,45.7,30.12,SE,134,5.0,24.0,62,0.00,,,0.00,meteohub,2013-03-08 19:54:00,
2013-03-08 13:59:00,59.0,46.0,30.12,SSE,152,11.0,23.0,62,0.00,,,0.00,meteohub,2013-03-08 19:59:00,
2013-03-08 14:04:00,59.2,46.2,30.12,SE,129,12.0,23.0,62,0.00,,,0.00,meteohub,2013-03-08 20:04:00,
2013-03-08 14:09:00,59.2,46.2,30.12,ESE,103,27.0,27.0,62,0.00,,,0.00,meteohub,2013-03-08 20:09:00,
2013-03-08 14:14:00,59.2,46.2,30.12,SE,145,6.0,27.0,62,0.00,,,0.00,meteohub,2013-03-08 20:14:00,
2013-03-08 14:19:00,59.2,46.6,30.11,SE,127,7.0,27.0,63,0.00,,,0.00,meteohub,2013-03-08 20:19:00,
2013-03-08 14:24:00,59.5,46.9,30.11,SSE,158,16.0,27.0,63,0.00,,,0.00,meteohub,2013-03-08 20:24:00,
2013-03-08 14:29:00,59.5,46.6,30.11,ESE,122,17.0,23.0,62,0.00,,,0.00,meteohub,2013-03-08 20:29:00,
2013-03-08 14:34:00,59.7,47.1,30.11,SSE,155,21.0,21.0,63,0.00,,,0.00,meteohub,2013-03-08 20:34:00,
2013-03-08 14:39:00,59.7,47.1,30.10,SE,138,9.0,21.0,63,0.00,,,0.00,meteohub,2013-03-08 20:39:00,
2013-03-08 14:44:00,59.4,46.8,30.10,SSE,158,10.0,21.0,63,0.00,,,0.00,meteohub,2013-03-08 20:44:00,
2013-03-08 14:49:00,59.5,46.9,30.10,SE,138,19.0,24.0,63,0.00,,,0.00,meteohub,2013-03-08 20:49:00,
2013-03-08 14:54:00,59.5,47.3,30.10,SSE,155,16.0,24.0,64,0.00,,,0.00,meteohub,2013-03-08 20:54:00,
2013-03-08 14:59:00,59.4,47.1,30.10,SE,127,15.0,24.0,64,0.00,,,0.00,meteohub,2013-03-08 20:59:00,
2013-03-08 15:04:00,59.4,47.1,30.10,SE,137,17.0,23.0,64,0.00,,,0.00,meteohub,2013-03-08 21:04:00,
2013-03-08 15:09:00,58.8,46.6,30.10,SSE,158,13.0,23.0,64,0.00,,,0.00,meteohub,2013-03-08 21:09:00,
2013-03-08 15:14:00,58.5,46.8,30.10,SSE,166,15.0,22.0,65,0.00,,,0.00,meteohub,2013-03-08 21:14:00,
2013-03-08 15:20:00,58.3,46.6,30.10,South,172,13.0,22.0,65,0.00,,,0.00,meteohub,2013-03-08 21:20:00,
2013-03-08 15:25:00,58.3,46.6,30.09,ESE,116,14.0,22.0,65,0.00,,,0.00,meteohub,2013-03-08 21:25:00,
2013-03-08 15:30:00,58.1,46.4,30.09,SE,127,11.0,20.0,65,0.00,,,0.00,meteohub,2013-03-08 21:30:00,
2013-03-08 15:35:00,57.9,46.6,30.09,SSE,152,11.0,20.0,66,0.00,,,0.00,meteohub,2013-03-08 21:35:00,
2013-03-08 15:40:00,57.9,46.6,30.09,SE,136,20.0,20.0,66,0.00,,,0.00,meteohub,2013-03-08 21:40:00,
2013-03-08 15:45:00,57.7,46.4,30.09,SE,143,15.0,21.0,66,0.00,,,0.00,meteohub,2013-03-08 21:45:00,
2013-03-08 15:50:00,57.7,46.9,30.08,SE,124,19.0,26.0,67,0.00,,,0.00,meteohub,2013-03-08 21:50:00,
2013-03-08 15:55:00,57.6,46.8,30.09,SE,134,8.0,26.0,67,0.00,,,0.00,meteohub,2013-03-08 21:55:00,
2013-03-08 16:00:00,57.4,46.6,30.09,SSE,147,11.0,26.0,67,0.00,,,0.00,meteohub,2013-03-08 22:00:00,
2013-03-08 16:05:00,57.0,46.6,30.09,ESE,117,23.0,26.0,68,0.00,,,0.00,meteohub,2013-03-08 22:05:00,
2013-03-08 16:10:00,56.7,46.2,30.09,SE,138,19.0,27.0,68,0.00,,,0.00,meteohub,2013-03-08 22:10:00,
2013-03-08 16:15:00,56.5,46.4,30.08,ESE,119,17.0,27.0,69,0.00,,,0.00,meteohub,2013-03-08 22:15:00,
2013-03-08 16:20:00,56.3,46.2,30.08,SSE,155,17.0,26.0,69,0.00,,,0.00,meteohub,2013-03-08 22:20:00,
2013-03-08 16:25:00,55.9,46.2,30.08,ESE,115,26.0,26.0,70,0.00,,,0.00,meteohub,2013-03-08 22:25:00,
2013-03-08 16:30:00,55.8,46.0,30.08,ESE,108,15.0,26.0,70,0.00,,,0.00,meteohub,2013-03-08 22:30:00,
2013-03-08 16:35:00,55.6,46.0,30.08,SE,136,21.0,26.0,70,0.00,,,0.00,meteohub,2013-03-08 22:35:00,
2013-03-08 16:40:00,55.2,45.7,30.08,SE,130,16.0,26.0,70,0.00,,,0.00,meteohub,2013-03-08 22:40:00,
2013-03-08 16:45:00,55.2,45.7,30.08,SSE,149,13.0,26.0,70,0.00,,,0.00,meteohub,2013-03-08 22:45:00,
2013-03-08 16:50:00,55.0,45.5,30.08,SSE,148,11.0,26.0,70,0.00,,,0.00,meteohub,2013-03-08 22:50:00,
2013-03-08 16:55:00,55.0,45.5,30.08,SE,129,18.0,22.0,70,0.00,,,0.00,meteohub,2013-03-08 22:55:00,
2013-03-08 17:00:00,55.0,45.5,30.08,SE,124,9.0,21.0,70,0.00,,,0.00,meteohub,2013-03-08 23:00:00,
2013-03-08 17:05:00,54.9,45.3,30.08,SE,129,9.0,28.0,70,0.00,,,0.00,meteohub,2013-03-08 23:05:00,
2013-03-08 17:11:00,54.9,45.3,30.09,ESE,120,17.0,28.0,70,0.00,,,0.00,meteohub,2013-03-08 23:11:00,
2013-03-08 17:16:00,54.7,45.5,30.09,ESE,114,11.0,28.0,71,0.00,,,0.00,meteohub,2013-03-08 23:16:00,
2013-03-08 17:21:00,54.7,45.5,30.08,SE,129,16.0,28.0,71,0.00,,,0.00,meteohub,2013-03-08 23:21:00,
2013-03-08 17:26:00,54.5,45.3,30.08,SE,131,17.0,25.0,71,0.00,,,0.00,meteohub,2013-03-08 23:26:00,
2013-03-08 17:31:00,54.3,45.5,30.08,ESE,115,25.0,31.0,72,0.00,,,0.00,meteohub,2013-03-08 23:31:00,
2013-03-08 17:36:00,54.3,45.5,30.08,ESE,122,13.0,31.0,72,0.00,,,0.00,meteohub,2013-03-08 23:36:00,
2013-03-08 17:41:00,54.1,45.3,30.08,SE,124,17.0,31.0,72,0.00,,,0.00,meteohub,2013-03-08 23:41:00,
2013-03-08 17:46:00,54.1,45.7,30.08,SE,129,16.0,28.0,73,0.00,,,0.00,meteohub,2013-03-08 23:46:00,
2013-03-08 17:51:00,54.1,45.7,30.08,SE,133,15.0,24.0,73,0.00,,,0.00,meteohub,2013-03-08 23:51:00,
2013-03-08 17:56:00,54.1,45.7,30.08,SE,124,12.0,23.0,73,0.00,,,0.00,meteohub,2013-03-08 23:56:00,
2013-03-08 18:01:00,54.1,45.7,30.08,SE,134,16.0,23.0,73,0.00,,,0.00,meteohub,2013-03-09 00:01:00,
2013-03-08 18:06:00,54.1,46.0,30.08,SSE,163,20.0,25.0,74,0.00,,,0.00,meteohub,2013-03-09 00:06:00,
2013-03-08 18:11:00,54.1,46.0,30.08,SE,127,12.0,25.0,74,0.00,,,0.00,meteohub,2013-03-09 00:11:00,
2013-03-08 18:16:00,54.1,46.4,30.08,ESE,121,14.0,25.0,75,0.00,,,0.00,meteohub,2013-03-09 00:16:00,
2013-03-08 18:21:00,54.0,46.2,30.08,ESE,114,17.0,24.0,75,0.00,,,0.00,meteohub,2013-03-09 00:21:00,
2013-03-08 18:26:00,53.8,46.0,30.08,ESE,112,23.0,27.0,75,0.00,,,0.00,meteohub,2013-03-09 00:26:00,
2013-03-08 18:31:00,53.8,46.4,30.08,SE,137,13.0,31.0,76,0.00,,,0.00,meteohub,2013-03-09 00:31:00,
2013-03-08 18:36:00,53.4,46.0,30.08,ESE,122,12.0,31.0,76,0.00,,,0.00,meteohub,2013-03-09 00:36:00,
2013-03-08 18:41:00,53.4,46.0,30.08,SE,127,17.0,25.0,76,0.00,,,0.00,meteohub,2013-03-09 00:41:00,
2013-03-08 18:46:00,53.2,45.9,30.08,ESE,117,20.0,26.0,76,0.00,,,0.00,meteohub,2013-03-09 00:46:00,
2013-03-08 18:51:00,53.2,46.2,30.08,ESE,119,20.0,27.0,77,0.00,,,0.00,meteohub,2013-03-09 00:51:00,
2013-03-08 18:56:00,53.2,46.2,30.08,SE,124,13.0,27.0,77,0.00,,,0.00,meteohub,2013-03-09 00:56:00,
2013-03-08 19:01:00,53.2,46.2,30.08,ESE,103,17.0,27.0,77,0.00,,,0.00,meteohub,2013-03-09 01:01:00,
2013-03-08 19:06:00,53.1,46.0,30.08,SE,129,14.0,27.0,77,0.00,,,0.00,meteohub,2013-03-09 01:06:00,
2013-03-08 19:11:00,53.1,46.0,30.08,SE,127,10.0,27.0,77,0.00,,,0.00,meteohub,2013-03-09 01:11:00,
2013-03-08 19:16:00,53.2,46.2,30.08,SE,130,14.0,24.0,77,0.00,,,0.00,meteohub,2013-03-09 01:16:00,
2013-03-08 19:21:00,53.2,46.2,30.08,SE,124,10.0,24.0,77,0.00,,,0.00,meteohub,2013-03-09 01:21:00,
2013-03-08 19:26:00,53.2,46.2,30.08,SE,134,10.0,24.0,77,0.00,,,0.00,meteohub,2013-03-09 01:26:00,
2013-03-08 19:31:00,53.4,46.4,30.09,SE,132,16.0,24.0,77,0.00,,,0.00,meteohub,2013-03-09 01:31:00,
2013-03-08 19:36:00,53.4,46.4,30.09,ESE,113,15.0,24.0,77,0.00,,,0.00,meteohub,2013-03-09 01:36:00,
2013-03-08 19:41:00,53.6,46.2,30.08,SE,127,14.0,24.0,76,0.00,,,0.00,meteohub,2013-03-09 01:41:00,
2013-03-08 19:46:00,53.6,46.2,30.08,SE,132,9.0,23.0,76,0.00,,,0.00,meteohub,2013-03-09 01:46:00,
2013-03-08 19:51:00,53.6,46.2,30.08,SE,143,8.0,23.0,76,0.00,,,0.00,meteohub,2013-03-09 01:51:00,
2013-03-08 19:56:00,53.6,46.2,30.08,SE,124,15.0,30.0,76,0.00,,,0.00,meteohub,2013-03-09 01:56:00,
2013-03-08 20:01:00,53.6,46.2,30.08,South,173,8.0,30.0,76,0.00,,,0.00,meteohub,2013-03-09 02:01:00,
2013-03-08 20:06:00,53.6,46.2,30.08,SE,136,11.0,24.0,76,0.00,,,0.00,meteohub,2013-03-09 02:06:00,
2013-03-08 20:11:00,53.8,46.4,30.08,SE,124,13.0,26.0,76,0.00,,,0.00,meteohub,2013-03-09 02:11:00,
2013-03-08 20:16:00,53.6,46.2,30.08,SE,136,14.0,26.0,76,0.00,,,0.00,meteohub,2013-03-09 02:16:00,
2013-03-08 20:21:00,53.8,46.4,30.07,ESE,120,20.0,26.0,76,0.00,,,0.00,meteohub,2013-03-09 02:21:00,
2013-03-08 20:26:00,53.8,46.4,30.07,SE,140,10.0,25.0,76,0.00,,,0.00,meteohub,2013-03-09 02:26:00,
2013-03-08 20:31:00,53.8,46.4,30.08,ESE,112,13.0,25.0,76,0.00,,,0.00,meteohub,2013-03-09 02:31:00,
2013-03-08 20:36:00,54.0,46.2,30.07,SSE,154,8.0,25.0,75,0.00,,,0.00,meteohub,2013-03-09 02:36:00,
2013-03-08 20:42:00,54.0,46.2,30.08,SSE,160,13.0,25.0,75,0.00,,,0.00,meteohub,2013-03-09 02:42:00,
2013-03-08 20:47:00,54.0,46.2,30.08,ESE,103,6.0,26.0,75,0.00,,,0.00,meteohub,2013-03-09 02:47:00,
2013-03-08 20:52:00,54.0,46.2,30.08,SSE,163,12.0,26.0,75,0.00,,,0.00,meteohub,2013-03-09 02:52:00,
2013-03-08 20:57:00,54.1,46.4,30.08,SSW,204,11.0,26.0,75,0.00,,,0.00,meteohub,2013-03-09 02:57:00,
2013-03-08 21:02:00,54.1,46.0,30.07,ESE,108,11.0,24.0,74,0.00,,,0.00,meteohub,2013-03-09 03:02:00,
2013-03-08 21:07:00,54.1,46.0,30.07,SE,146,9.0,25.0,74,0.00,,,0.00,meteohub,2013-03-09 03:07:00,
2013-03-08 21:12:00,54.1,45.7,30.07,South,184,17.0,28.0,73,0.00,,,0.00,meteohub,2013-03-09 03:12:00,
2013-03-08 21:17:00,54.1,45.7,30.07,SE,143,12.0,28.0,73,0.00,,,0.00,meteohub,2013-03-09 03:17:00,
2013-03-08 21:22:00,54.1,45.7,30.06,ESE,123,16.0,28.0,73,0.00,,,0.00,meteohub,2013-03-09 03:22:00,
2013-03-08 21:27:00,54.1,45.3,30.07,SSE,158,15.0,23.0,72,0.00,,,0.00,meteohub,2013-03-09 03:27:00,
2013-03-08 21:32:00,54.0,45.1,30.06,SE,138,13.0,24.0,72,0.00,,,0.00,meteohub,2013-03-09 03:32:00,
2013-03-08 21:37:00,54.0,45.1,30.06,South,179,14.0,24.0,72,0.00,,,0.00,meteohub,2013-03-09 03:37:00,
2013-03-08 21:42:00,54.0,45.1,30.06,SSE,165,13.0,24.0,72,0.00,,,0.00,meteohub,2013-03-09 03:42:00,
2013-03-08 21:47:00,54.0,45.1,30.06,SW,231,11.0,22.0,72,0.00,,,0.00,meteohub,2013-03-09 03:47:00,
2013-03-08 21:52:00,54.0,45.1,30.06,SSE,155,9.0,21.0,72,0.00,,,0.00,meteohub,2013-03-09 03:52:00,
2013-03-08 21:57:00,54.0,45.1,30.06,SE,136,13.0,25.0,72,0.00,,,0.00,meteohub,2013-03-09 03:57:00,
2013-03-08 22:02:00,54.0,45.1,30.06,SE,127,12.0,25.0,72,0.00,,,0.00,meteohub,2013-03-09 04:02:00,
2013-03-08 22:07:00,54.0,45.1,30.06,ESE,121,17.0,25.0,72,0.00,,,0.00,meteohub,2013-03-09 04:07:00,
2013-03-08 22:12:00,54.0,45.1,30.06,SE,127,17.0,24.0,72,0.00,,,0.00,meteohub,2013-03-09 04:12:00,
2013-03-08 22:17:00,54.1,45.3,30.06,South,169,8.0,24.0,72,0.00,,,0.00,meteohub,2013-03-09 04:17:00,
2013-03-08 22:22:00,54.1,45.0,30.05,SSE,153,10.0,24.0,71,0.00,,,0.00,meteohub,2013-03-09 04:22:00,
2013-03-08 22:26:00,54.1,45.0,30.04,SSE,150,16.0,23.0,71,0.00,,,0.00,meteohub,2013-03-09 04:26:00,
2013-03-08 22:32:00,54.1,45.0,30.04,ESE,120,20.0,23.0,71,0.00,,,0.00,meteohub,2013-03-09 04:32:00,
2013-03-08 22:37:00,54.1,45.0,30.04,SE,134,11.0,24.0,71,0.00,,,0.00,meteohub,2013-03-09 04:37:00,
2013-03-08 22:42:00,54.1,45.3,30.04,SSE,153,7.0,24.0,72,0.00,,,0.00,meteohub,2013-03-09 04:42:00,
2013-03-08 22:47:00,54.1,45.3,30.04,ESE,122,17.0,24.0,72,0.00,,,0.00,meteohub,2013-03-09 04:47:00,
2013-03-08 22:52:00,54.1,45.3,30.04,ESE,103,11.0,25.0,72,0.00,,,0.00,meteohub,2013-03-09 04:52:00,
2013-03-08 22:57:00,54.1,45.3,30.05,SE,145,17.0,25.0,72,0.00,,,0.00,meteohub,2013-03-09 04:57:00,
2013-03-08 23:00:00,54.3,45.5,30.05,SE,142,6.0,25.0,72,0.00,,,0.00,meteohub,2013-03-09 05:00:00,
2013-03-08 23:05:00,54.3,45.5,30.05,SSE,150,21.0,24.0,72,0.00,,,0.00,meteohub,2013-03-09 05:05:00,
2013-03-08 23:10:00,54.3,45.9,30.05,SE,136,14.0,29.0,73,0.00,,,0.00,meteohub,2013-03-09 05:10:00,
2013-03-08 23:16:00,54.5,46.0,30.06,South,184,19.0,29.0,73,0.00,,,0.00,meteohub,2013-03-09 05:16:00,
2013-03-08 23:21:00,54.5,46.0,30.06,SSE,163,14.0,29.0,73,0.00,,,0.00,meteohub,2013-03-09 05:21:00,
2013-03-08 23:26:00,54.7,46.2,30.05,SE,142,12.0,26.0,73,0.00,,,0.00,meteohub,2013-03-09 05:26:00,
2013-03-08 23:31:00,54.7,46.2,30.06,South,174,21.0,26.0,73,0.00,,,0.00,meteohub,2013-03-09 05:31:00,
2013-03-08 23:36:00,54.7,46.2,30.06,SE,143,18.0,26.0,73,0.00,,,0.00,meteohub,2013-03-09 05:36:00,
2013-03-08 23:41:00,54.7,46.2,30.05,SSE,149,7.0,25.0,73,0.00,,,0.00,meteohub,2013-03-09 05:41:00,
2013-03-08 23:46:00,54.7,46.2,30.05,South,174,10.0,25.0,73,0.00,,,0.00,meteohub,2013-03-09 05:46:00,
2013-03-08 23:51:00,54.7,46.2,30.04,SSW,197,18.0,23.0,73,0.00,,,0.00,meteohub,2013-03-09 05:51:00,
2013-03-08 23:56:00,54.7,46.2,30.04,South,173,9.0,21.0,73,0.00,,,0.00,meteohub,2013-03-09 05:56:00,